Satellite: OKEAN-4
Catalog number: 23317
Epoch time:      06257.72426294
Element set:      50
Inclination:      082.5417 deg
RA of node:       193.4876 deg
Eccentricity:    0.0024088
Arg of perigee:   079.6344 deg
Mean anomaly:     280.7603 deg
Mean motion:   14.82397138 rev/day
Decay rate:       2.61e-06 rev/day^2
Epoch rev:           64324
Checksum:              311

Satellite: NOAA-14
Catalog number: 23455
Epoch time:      06257.26590238
Element set:     273
Inclination:      099.0288 deg
RA of node:       316.4531 deg
Eccentricity:    0.0009773
Arg of perigee:   156.1219 deg
Mean anomaly:     204.0402 deg
Mean motion:   14.13682771 rev/day
Decay rate:       -4.0e-07 rev/day^2
Epoch rev:           60365
Checksum:              289

Satellite: SICH-1
Catalog number: 23657
Epoch time:      06257.71160544
Element set:     853
Inclination:      082.5312 deg
RA of node:       334.4107 deg
Eccentricity:    0.0025687
Arg of perigee:   070.1146 deg
Mean anomaly:     290.2867 deg
Mean motion:   14.81389541 rev/day
Decay rate:       1.10e-06 rev/day^2
Epoch rev:           59524
Checksum:              293

Satellite: NOAA-15
Catalog number: 25338
Epoch time:      06257.43338826
Element set:     660
Inclination:      098.5218 deg
RA of node:       257.0832 deg
Eccentricity:    0.0011528
Arg of perigee:   111.9088 deg
Mean anomaly:     248.3327 deg
Mean motion:   14.24602073 rev/day
Decay rate:       -3.9e-07 rev/day^2
Epoch rev:           43342
Checksum:              299

Satellite: RESURS
Catalog number: 25394
Epoch time:      06257.79485974
Element set:     458
Inclination:      098.4826 deg
RA of node:       317.6228 deg
Eccentricity:    0.0000826
Arg of perigee:   306.7954 deg
Mean anomaly:     053.3149 deg
Mean motion:   14.24111701 rev/day
Decay rate:        1.0e-07 rev/day^2
Epoch rev:           42515
Checksum:              304

Satellite: FENGYUN1
Catalog number: 25730
Epoch time:      06256.56830117
Element set:    0824
Inclination:      098.6339 deg
RA of node:       245.8003 deg
Eccentricity:    0.0013553
Arg of perigee:   249.6214 deg
Mean anomaly:     110.3486 deg
Mean motion:   14.11815045 rev/day
Decay rate:      -1.55e-06 rev/day^2
Epoch rev:           37848
Checksum:              291

Satellite: OKEAN-0
Catalog number: 25860
Epoch time:      06257.71961215
Element set:     851
Inclination:      097.7334 deg
RA of node:       267.8813 deg
Eccentricity:    0.0001139
Arg of perigee:   109.5682 deg
Mean anomaly:     250.5637 deg
Mean motion:   14.73388402 rev/day
Decay rate:        6.6e-07 rev/day^2
Epoch rev:           38493
Checksum:              318

Satellite: NOAA-16
Catalog number: 26536
Epoch time:      06257.40736431
Element set:      41
Inclination:      099.0768 deg
RA of node:       225.1152 deg
Eccentricity:    0.0009820
Arg of perigee:   228.1535 deg
Mean anomaly:     131.8827 deg
Mean motion:   14.12368201 rev/day
Decay rate:       1.17e-06 rev/day^2
Epoch rev:           30817
Checksum:              280

Satellite: NOAA-17
Catalog number: 27453
Epoch time:      06257.34958493
Element set:      60
Inclination:      098.6146 deg
RA of node:       327.8020 deg
Eccentricity:    0.0011963
Arg of perigee:   172.6023 deg
Mean anomaly:     187.5331 deg
Mean motion:   14.23808893 rev/day
Decay rate:        4.1e-07 rev/day^2
Epoch rev:           21946
Checksum:              309

Satellite: NOAA-18
Catalog number: 28654
Epoch time:      06257.27306514
Element set:     633
Inclination:      098.7929 deg
RA of node:       198.6633 deg
Eccentricity:    0.0014444
Arg of perigee:   333.1372 deg
Mean anomaly:     026.9061 deg
Mean motion:   14.10989408 rev/day
Decay rate:       -2.0e-08 rev/day^2
Epoch rev:            6794
Checksum:              322

/EX
SB KEPS @ AMSAT  $ORB06257.M
Orbital Elements  06257.MISC

HR AMSAT ORBITAL ELEMENTS FOR MANNED AND MISCELLANEOUS SATELLITES
FROM WA5QGD FORT WORTH,TX September 14, 2006
Send SUBSCRIBE KEPS/UNSUBSCRIBE KEPS to majordomo at amsat.org only
BID: ORB06257.M
TO ALL RADIO AMATEURS BT

Satellite: HUBBLE
Catalog number: 20580
Epoch time:      06256.91697540
Element set:    0718
Inclination:      028.4683 deg
RA of node:       191.4537 deg
Eccentricity:    0.0003462
Arg of perigee:   049.8085 deg
Mean anomaly:     310.2805 deg
Mean motion:   15.00092115 rev/day
Decay rate:       4.79e-06 rev/day^2
Epoch rev:           69843
Checksum:              303

Satellite: UARS
Catalog number: 21701
Epoch time:      06256.94347896
Element set:    0870
Inclination:      056.9753 deg
RA of node:       069.6512 deg
Eccentricity:    0.0103057
Arg of perigee:   023.4210 deg
Mean anomaly:     337.1497 deg
Mean motion:   15.44592314 rev/day
Decay rate:      5.854e-05 rev/day^2
Epoch rev:           82301
Checksum:              303

Satellite: PO-34
Catalog number: 25520
Epoch time:      06256.91341224
Element set:    0572
Inclination:      028.4598 deg
RA of node:       157.5438 deg
Eccentricity:    0.0005596
Arg of perigee:   126.8216 deg
Mean anomaly:     233.2889 deg
Mean motion:   15.16787528 rev/day
Decay rate:       6.62e-06 rev/day^2
Epoch rev:           43553
Checksum:              329

Satellite: ISS
Catalog number: 25544
Epoch time:      06257.97699067
Element set:     666
Inclination:      051.6336 deg
RA of node:       084.9179 deg
Eccentricity:    0.0011192
Arg of perigee:   340.6475 deg
Mean anomaly:     182.4049 deg
Mean motion:   15.75721226 rev/day
Decay rate:    -5.1403e-04 rev/day^2
Epoch rev:           44732
Checksum:              323

Satellite: OO-38
Catalog number: 26063
Epoch time:      06257.77106238
Element set:     717
Inclination:      100.1918 deg
RA of node:       204.9522 deg
Eccentricity:    0.0036630
Arg of perigee:   214.7437 deg
Mean anomaly:     145.1349 deg
Mean motion:   14.35776694 rev/day
Decay rate:       -4.0e-08 rev/day^2
Epoch rev:           34752
Checksum:              304

Satellite: NO-45
Catalog number: 26932
Epoch time:      06256.93917430
Element set:    0427
Inclination:      067.0538 deg
RA of node:       138.7939 deg
Eccentricity:    0.0006978
Arg of perigee:   236.4921 deg
Mean anomaly:     123.5513 deg
Mean motion:   14.29534848 rev/day
Decay rate:       -4.0e-08 rev/day^2
Epoch rev:           25865
Checksum:              336

Satellite: UWE-1
Catalog number: 28892
Epoch time:      06257.67142603
Element set:     551
Inclination:      098.1505 deg
RA of node:       154.3915 deg
Eccentricity:    0.0016352
Arg of perigee:   252.7627 deg
Mean anomaly:     107.1782 deg
Mean motion:   14.59394471 rev/day
Decay rate:       1.57e-06 rev/day^2
Epoch rev:            4702
Checksum:              303

Satellite: CO-58
Catalog number: 28895
Epoch time:      06256.69957866
Element set:    0535
Inclination:      098.1518 deg
RA of node:       153.5469 deg
Eccentricity:    0.0016859
Arg of perigee:   256.8198 deg
Mean anomaly:     103.1116 deg
Mean motion:   14.59445177 rev/day
Decay rate:       2.84e-06 rev/day^2
Epoch rev:           04676
Checksum:              373

Satellite: NCUBE2
Catalog number: 28897
Epoch time:      06256.66743442
Element set:    0119
Inclination:      098.1519 deg
RA of node:       153.4941 deg
Eccentricity:    0.0016387
Arg of perigee:   258.4331 deg
Mean anomaly:     101.5028 deg
Mean motion:   14.59600620 rev/day
Decay rate:       1.41e-06 rev/day^2
Epoch rev:           03903
Checksum:              293

/EX






More information about the Keps mailing list